Weather History for Valdez Airport, AK

Change the Weather History Date:

Saturday, November 30, 2013

  Actual Average Record
Temperature  
Mean Temperature 18 °F -  
Max Temperature 26 °F 31 °F 39 °F (1997)
Min Temperature 12 °F 22 °F 2 °F (1990)
Degree Days  
Heating Degree Days 47    
Moisture  
Dew Point -3 °F    
Average Humidity 41    
Maximum Humidity 49    
Minimum Humidity 31    
Precipitation  
Precipitation 0.00 in - - ()
Sea Level Pressure  
Sea Level Pressure 30.13 in    
Wind  
Wind Speed 22 mph (NE)    
Max Wind Speed 46 mph    
Max Gust Speed 69 mph    
Visibility 9 miles    
Events      
Averages and records for this station are not official NWS values.
T = Trace of Precipitation, MM = Missing Value Source: NWS Daily Summary

Daily Weather History Graph

Daily Weather History Graph

Search for Another Location

Airport:

Trip Planner

Search our weather history database for the weather conditions in past years. The results will help you decide how hot, cold, wet, or windy it might be!

Date:

Astronomy

Nov. 30, 2013 Rise Set
Actual Time 9:28 AM AKST 3:38 PM AKST
Civil Twilight 8:31 AM AKST 4:35 PM AKST
Nautical Twilight 7:34 AM AKST 5:33 PM AKST
Astronomical Twilight 6:41 AM AKST 6:25 PM AKST
Moon 6:09 AM AKST (11/30) 2:44 PM AKST (11/30)
Length of Visible Light 8h 04m
Length of Day
6h 09m
Waning Crescent, 6% of the Moon is Illuminated
Nov 30
Waning Crescent
Dec 2
New
Dec 9
First Quarter
Dec 17
Full
Dec 25
Last Quarter

Hourly Weather History & Observations

Time (AKST) Temp. Windchill Dew Point Humidity Pressure Visibility Wind Dir Wind Speed Gust Speed Precip Events Conditions
12:16 AM 15.8 °F 1.4 °F -2.2 °F 45% 30.01 in 9.0 mi NE 13.8 mph 40.3 mph N/A   Clear
12:36 AM 15.8 °F -3.7 °F -5.8 °F 38% 30.00 in 7.0 mi East 27.6 mph 41.4 mph N/A   Clear
12:56 AM 17.6 °F -1.3 °F -2.2 °F 42% 30.01 in 9.0 mi ENE 27.6 mph 38.0 mph N/A   Clear
1:16 AM 17.6 °F -1.6 °F -2.2 °F 42% 30.00 in 9.0 mi ENE 28.8 mph 42.6 mph N/A   Clear
1:36 AM 17.6 °F 6.4 °F -4.0 °F 38% 30.03 in 10.0 mi NE 9.2 mph 36.8 mph N/A   Clear
1:56 AM 15.8 °F -3.1 °F -5.8 °F 38% 30.02 in 10.0 mi East 25.3 mph 38.0 mph N/A   Clear
2:16 AM 17.6 °F 5.7 °F -4.0 °F 38% 30.03 in 10.0 mi NNW 10.4 mph 17.3 mph N/A   Clear
2:36 AM 15.8 °F 4.2 °F -4.0 °F 41% 30.03 in 10.0 mi North 9.2 mph 21.9 mph N/A   Clear
2:56 AM 14.0 °F 5.1 °F -4.0 °F 45% 30.05 in 10.0 mi NNW 5.8 mph - N/A   Clear
3:16 AM 15.8 °F 8.6 °F -5.8 °F 38% 30.07 in 10.0 mi NE 4.6 mph - N/A   Clear
3:36 AM 14.0 °F 5.1 °F -5.8 °F 41% 30.07 in 10.0 mi NNW 5.8 mph - N/A   Clear
3:56 AM 15.8 °F -2.3 °F -4.0 °F 41% 30.06 in 10.0 mi ENE 23.0 mph 31.1 mph N/A   Clear
4:16 AM 15.8 °F -3.7 °F -2.2 °F 45% 30.06 in 7.0 mi East 27.6 mph 44.9 mph N/A   Clear
4:36 AM 15.8 °F -2.7 °F -2.2 °F 45% 30.07 in 5.0 mi East 24.2 mph 47.2 mph N/A   Clear
4:56 AM 15.8 °F 2.7 °F -4.0 °F 41% 30.07 in 7.0 mi NNE 11.5 mph 34.5 mph N/A   Clear
5:16 AM 14.0 °F 5.1 °F -7.6 °F 38% 30.08 in 10.0 mi NNW 5.8 mph 21.9 mph N/A   Clear
5:36 AM 12.2 °F - -7.6 °F 41% 30.09 in 10.0 mi Calm Calm - N/A   Clear
5:56 AM 12.2 °F 0.7 °F -7.6 °F 41% 30.08 in 10.0 mi NW 8.1 mph - N/A   Clear
6:16 AM 12.2 °F 6.1 °F -5.8 °F 45% 30.09 in 10.0 mi NNE 3.5 mph - N/A   Clear
6:36 AM 12.2 °F 0.7 °F -5.8 °F 45% 30.09 in 10.0 mi East 8.1 mph - N/A   Clear
6:56 AM 15.8 °F 2.7 °F -4.0 °F 41% 30.09 in 10.0 mi NE 11.5 mph 20.7 mph N/A   Clear
7:16 AM 15.8 °F -1.9 °F -4.0 °F 41% 30.08 in 10.0 mi ENE 21.9 mph 39.1 mph N/A   Clear
7:36 AM 15.8 °F -5.5 °F -2.2 °F 45% 30.08 in 10.0 mi East 34.5 mph 52.9 mph N/A   Clear
7:56 AM 17.6 °F -3.8 °F -2.2 °F 42% 30.06 in 10.0 mi East 38.0 mph 52.9 mph N/A   Partly Cloudy
8:16 AM 15.8 °F -6.1 °F -2.2 °F 45% 30.08 in 10.0 mi East 36.8 mph 51.8 mph N/A   Partly Cloudy
8:36 AM 15.8 °F -6.1 °F -2.2 °F 45% 30.08 in 10.0 mi East 36.8 mph 50.6 mph N/A   Partly Cloudy
8:56 AM 15.8 °F -4.4 °F -2.2 °F 45% 30.09 in 10.0 mi ENE 29.9 mph 48.3 mph N/A   Mostly Cloudy
9:16 AM 17.6 °F -0.6 °F -2.2 °F 42% 30.10 in 10.0 mi ENE 25.3 mph 55.2 mph N/A   Mostly Cloudy
9:36 AM 15.8 °F 2.7 °F -0.4 °F 49% 30.12 in 10.0 mi North 11.5 mph 40.3 mph N/A   Mostly Cloudy
9:56 AM 17.6 °F 5.0 °F -2.2 °F 42% 30.13 in 10.0 mi ENE 11.5 mph 47.2 mph N/A   Mostly Cloudy
10:16 AM 17.6 °F -1.6 °F -2.2 °F 42% 30.12 in 10.0 mi East 28.8 mph 46.0 mph N/A   Mostly Cloudy
10:36 AM 17.6 °F -2.5 °F -2.2 °F 42% 30.12 in 10.0 mi East 32.2 mph 46.0 mph N/A   Mostly Cloudy
10:56 AM 17.6 °F -1.9 °F -2.2 °F 42% 30.13 in 10.0 mi East 29.9 mph 52.9 mph N/A   Scattered Clouds
11:16 AM 17.6 °F -3.6 °F -0.4 °F 45% 30.12 in 10.0 mi ENE 36.8 mph 48.3 mph N/A   Scattered Clouds
11:36 AM 17.6 °F -1.9 °F -0.4 °F 45% 30.13 in 10.0 mi NE 29.9 mph 51.8 mph N/A   Scattered Clouds
11:56 AM 17.6 °F -3.8 °F -2.2 °F 42% 30.12 in 10.0 mi ENE 38.0 mph 57.5 mph N/A   Scattered Clouds
12:16 PM 15.8 °F -6.6 °F -2.2 °F 45% 30.13 in 10.0 mi ENE 39.1 mph 54.1 mph N/A   Scattered Clouds
12:36 PM 17.6 °F -1.6 °F -0.4 °F 45% 30.16 in 10.0 mi ENE 28.8 mph 47.2 mph N/A   Scattered Clouds
12:56 PM 17.6 °F -5.0 °F -0.4 °F 45% 30.13 in 10.0 mi East 43.7 mph 55.2 mph N/A   Partly Cloudy
1:16 PM 17.6 °F -2.2 °F -2.2 °F 42% 30.16 in 10.0 mi East 31.1 mph 49.5 mph N/A   Partly Cloudy
1:36 PM 17.6 °F -3.6 °F -0.4 °F 45% 30.15 in 10.0 mi East 36.8 mph 49.5 mph N/A   Partly Cloudy
1:56 PM 17.6 °F -2.5 °F -2.2 °F 42% 30.16 in 10.0 mi ENE 32.2 mph 44.9 mph N/A   Partly Cloudy
2:16 PM 17.6 °F -2.5 °F -0.4 °F 45% 30.17 in 10.0 mi NE 32.2 mph 50.6 mph N/A   Partly Cloudy
2:36 PM 17.6 °F 0.9 °F -2.2 °F 42% 30.19 in 10.0 mi ENE 20.7 mph 40.3 mph N/A   Partly Cloudy
2:56 PM 19.4 °F 9.5 °F -0.4 °F 42% 30.20 in 10.0 mi NE 8.1 mph 29.9 mph N/A   Partly Cloudy
3:16 PM 19.4 °F -0.3 °F -2.2 °F 39% 30.17 in 10.0 mi ENE 33.4 mph 46.0 mph N/A   Partly Cloudy
3:36 PM 17.6 °F -3.3 °F -5.8 °F 35% 30.18 in 10.0 mi East 35.7 mph 55.2 mph N/A   Partly Cloudy
3:56 PM 17.6 °F -2.5 °F -2.2 °F 42% 30.20 in 10.0 mi East 32.2 mph 58.7 mph N/A   Partly Cloudy
4:16 PM 17.6 °F -1.6 °F -2.2 °F 42% 30.20 in 10.0 mi ENE 28.8 mph 48.3 mph N/A   Partly Cloudy
4:36 PM 17.6 °F -0.3 °F -0.4 °F 45% 30.21 in 10.0 mi ENE 24.2 mph 34.5 mph N/A   Partly Cloudy
4:56 PM 17.6 °F 2.7 °F -2.2 °F 42% 30.22 in 10.0 mi ENE 16.1 mph 40.3 mph N/A   Partly Cloudy
5:16 PM 19.4 °F 6.0 °F -2.2 °F 39% 30.21 in 10.0 mi NE 13.8 mph 34.5 mph N/A   Partly Cloudy
5:36 PM 19.4 °F 10.4 °F -2.2 °F 39% 30.21 in 10.0 mi NW 6.9 mph 29.9 mph N/A   Partly Cloudy
5:56 PM 19.4 °F 11.5 °F -2.2 °F 39% 30.22 in 10.0 mi East 5.8 mph 17.3 mph N/A   Partly Cloudy
6:16 PM 19.4 °F 9.5 °F -2.2 °F 39% 30.21 in 10.0 mi NE 8.1 mph 32.2 mph N/A   Partly Cloudy
6:36 PM 21.2 °F 12.6 °F -2.2 °F 36% 30.20 in 10.0 mi NE 6.9 mph 28.8 mph N/A   Partly Cloudy
6:56 PM 21.2 °F 8.9 °F -4.0 °F 33% 30.19 in 10.0 mi ENE 12.7 mph 29.9 mph N/A   Partly Cloudy
7:16 PM 21.2 °F 6.8 °F -2.2 °F 36% 30.20 in 10.0 mi North 17.3 mph 31.1 mph N/A   Partly Cloudy
7:36 PM 24.8 °F 6.0 °F 1.4 °F 36% 30.16 in 10.0 mi NNE 39.1 mph 55.2 mph N/A   Partly Cloudy
7:56 PM 24.8 °F 6.2 °F 1.4 °F 36% 30.17 in 5.0 mi NNE 38.0 mph 56.4 mph N/A   Clear
8:16 PM 24.8 °F 5.3 °F 1.4 °F 36% 30.17 in 5.0 mi NNE 42.6 mph 61.0 mph N/A   Clear
8:36 PM - - - N/A% 30.15 in 5.0 mi NNE 43.7 mph 58.7 mph N/A   Clear
8:56 PM - - - N/A% 30.15 in 5.0 mi NNE 42.6 mph 57.5 mph N/A   Clear
9:16 PM - - - N/A% 30.15 in 5.0 mi North 46.0 mph 64.4 mph N/A   Clear
9:36 PM - - - N/A% 30.17 in 5.0 mi North 44.9 mph 61.0 mph N/A   Clear
9:56 PM - - - N/A% 30.21 in 5.0 mi NNE 43.7 mph 69.0 mph N/A   Clear
10:16 PM 24.8 °F 5.1 °F -2.2 °F 31% 30.21 in 9.0 mi ENE 43.7 mph 56.4 mph N/A   Clear
10:36 PM 23.0 °F 4.4 °F -2.2 °F 33% 30.23 in 2.5 mi ENE 34.5 mph 62.1 mph N/A   Partly Cloudy
10:56 PM 23.0 °F 5.1 °F -0.4 °F 36% 30.24 in 5.0 mi NE 31.1 mph 57.5 mph N/A   Partly Cloudy
11:16 PM 24.8 °F 9.6 °F -0.4 °F 34% 30.27 in 8.0 mi NNE 23.0 mph 52.9 mph N/A   Clear
11:36 PM 24.8 °F 9.0 °F -0.4 °F 34% 30.26 in 10.0 mi NNE 25.3 mph 41.4 mph N/A   Clear
11:56 PM 26.6 °F 11.4 °F -0.4 °F 31% 30.26 in 10.0 mi NNE 25.3 mph 46.0 mph N/A   Clear